Location: New Greens
(51.7702°N, 0.3379°W)
Time: 13:05:43
(UTC+00:00)

Tiangong - Pass Details

Date: 28 June 2021
Orbit: 374 x 386 km, 41.5° (Epoch: 26 July)

Event Time Altitude Azimuth Distance (km) Brightness Sun altitude
Exits shadow 02:40:48 10° 210° (SSW) 1,362 3.2 -7.5°
Maximum altitude 02:42:01 12° 187° (S) 1,260 3.1 -7.4°
Drops below altitude 10° 02:43:21 10° 161° (SSE) 1,386 3.5 -7.3°
Sets 02:46:22 0° 130° (SE) 2,240 4.9 -7.0°
